Regional Weather Roundup
Issued by NWS State College, PA

Home | Current Version | Previous Version | Text Only | Print | Product List | Glossary On
Versions: 1 2 3 4 5 6 7 8 9 10 11 12 13 14 15 16 17 18 19 20 21 22 23 24 25 26 27 28 29 30 31 32 33 34 35 36 37 38 39 40 41 42 43 44 45 46 47 48 49 50
000
ASUS41 KCTP 042010
RWRCTP

REGIONAL WEATHER ROUNDUP
NATIONAL WEATHER SERVICE STATE COLLEGE PA
300 PM EST SUN DEC 04 2016

Note: "fair" indicates few or no clouds below 12,000 feet with no
significant weather and/or obstructions to visibility.

* = STATION THAT DOES NOT REPORT PRECIPITATION /E.G. RAIN...SNOW...ETC/
    THUNDER OR FOG.

PAZ002>004-007>009-013>016-020>023-029>032-042100-
WESTERN PENNSYLVANIA

CITY           SKY/WX    TMP DP  RH WIND       PRES   REMARKS
ERIE           PTSUNNY   41  31  67 SE9       30.11F
MEADVILLE      CLOUDY    38  27  64 E5        30.08F
FRANKLIN*        N/A     37  25  60 SE9       30.09F
NEW CASTLE     FAIR      40  29  64 VRB5      30.10F
BEAVER COUNTY  NOT AVBL
BUTLER*        CLOUDY    37  27  65 E9        30.11F
PITTSBURGH INT CLOUDY    42  28  57 E13       30.07F
PITTSBURGH     CLOUDY    40  25  55 E9        30.07F
INDIANA*       SUNNY     39  28  65 SE7       30.13F
LATROBE        PTSUNNY   41  27  56 E12       30.11F
WASHINGTON CO* CLOUDY    39  27  60 E9        30.08F
$$

PAZ004>006-010>012-017>019-024>028-033>037-041-042-045-046-049>053-042100-
CENTRAL PENNSYLVANIA

CITY           SKY/WX    TMP DP  RH WIND       PRES   REMARKS
BRADFORD       CLOUDY    35  26  69 E7        30.10F
DUBOIS         CLOUDY    37  26  64 E6        30.10F
CLEARFIELD     CLOUDY    38  27  64 E6        30.13F
JOHNSTOWN      CLOUDY    36  26  67 E6        30.08F
ALTOONA        MOSUNNY   40  28  62 E5        30.14S
STATE COLLEGE  CLOUDY    37  27  65 CALM      30.15F
WILLIAMSPORT   CLOUDY    44  23  43 CALM      30.17F
SELINSGROVE    CLOUDY    43  26  51 CALM      30.19F
FT INDIANTOWN  CLOUDY    44  24  46 NE3       30.18F
CAPITAL CITY   CLOUDY    45  25  45 CALM      30.18F
HARRISBURG     CLOUDY    45  29  53 CALM      30.18F
YORK           CLOUDY    43  30  60 NW3       30.18F
$$

PAZ038>040-043-044-047-048-054-055-060>062-067>071-042100-
EASTERN PENNSYLVANIA

CITY           SKY/WX    TMP DP  RH WIND       PRES   REMARKS
SCRANTON       CLOUDY    41  24  51 N7        30.17F
MOUNT POCONO   MOSUNNY   36  20  52 N7        30.13F
ALLENTOWN      SUNNY     47  24  40 NW7       30.19S
QUAKERTOWN*    CLEAR     45  25  45 CALM      30.19F
READING        CLOUDY    45  24  43 NW5       30.18F
LANCASTER      CLOUDY    45  29  53 W3        30.18F
COATESVILLE    CLOUDY    43  25  49 CALM      30.19F
POTTSTOWN      MOSUNNY   45  25  45 VRB3      30.20F
BLUE BELL      MOSUNNY   43  27  52 CALM      30.18F
DOYLESTOWN     SUNNY     46  25  43 N5        30.18F
WILLOW GROVE   NOT AVBL
NORTH PHILA    MOSUNNY   48  26  42 N3        30.21S
PHILADELPHIA   PTSUNNY   47  24  40 NW7       30.20F
$$



USA.gov is the U.S. government's official web portal to all federal, state and local government web resources and services.